sat.trackr.live / text

‹ back to catalog

STARLINK-2413

NORAD 47827 · 2021-018AS

PAYLOAD ACTIVE UNKNOWN

§ Identity

Operator
Country
US
Launch date
2021-03-11
Launch site
AFETR
Launch vehicle
Mass (kg)
RCS (m²)

Purposes: comms

External: N2YO · Heavens-Above · Gunter

§ Orbital elements

Epoch: 2026-09-09T21:27:52.278048Z

Period
94.01 min
Inclination
53.1575°
Eccentricity
0.0001162
Mean motion
15.31713394 rev/d
Perigee alt
469.9 km
Apogee alt
471.5 km
Semi-major
6,848.8 km
B*
8.0988e-5
RAAN
105.3580°
Arg perigee
89.5388°
Mean anomaly
270.5747°
Rev number
30,500

§ Raw data

STARLINK-24131 47827U 21018AS  26252.89435507  .00002150  00000+0  80988-4 0  99922 47827  53.1575 105.3580 0001162  89.5388 270.5747 15.31713394305006

JSON: /api/v1/satellites/47827 · /tle

For live sub-satellite position, see the globe view (requires WebGL).

§ Visibility from observer

Set your observer location to see the next 7 days of passes ≥ 10°. The values pass through the URL so the page stays shareable.

No JS? Fill the form by hand. The geolocation button needs JavaScript.